Regional Weather Roundup
Issued by NWS Charleston, SC

Current Version | Previous Version | Graphics & Text | Print | Product List | Glossary On
Versions: 1 2 3 4 5 6 7 8 9 10 11 12 13 14 15 16 17 18 19 20 21 22 23 24 25 26 27 28 29 30 31 32 33 34 35 36 37 38 39 40 41 42 43 44 45 46 47 48 49 50
813
ASUS42 KCHS 271513
RWRCHS

REGIONAL WEATHER ROUNDUP
NATIONAL WEATHER SERVICE CHARLESTON SC
1100 AM EDT WED JUL 27 2016

NOTE: "FAIR" INDICATES FEW OR NO CLOUDS BELOW 12,000 FEET WITH NO
SIGNIFICANT WEATHER AND/OR OBSTRUCTIONS TO VISIBILITY.

NOT ALL STATIONS ARE QUALITY CONTROLLED. USE DATA WITH CAUTION...
ESPECIALLY DEWPOINT OBSERVATIONS.

SCZ027-030-031-034>040-042>050-271600-
...SOUTHEAST SOUTH CAROLINA...

CITY           SKY/WX    TMP DP  RH WIND       PRES   REMARKS
N CHARLESTON   MOSUNNY   90  74  59 SW9       30.05S HX  99
WATERFRONT PRK   N/A     86  75  69 W5        30.03S HX  95
MOUNT PLEASANT FAIR      90  75  62 W7        30.05R HX 100
JOHNS ISLAND   FAIR      90  75  62 SW9       30.05S HX 100
PINOPOLIS        N/A     84  75  74 SW5       29.97S HX  92
MONCKS CORNER  FAIR      86  72  62 SW6       30.04S HX  92
SUMMERVILLE    FAIR      88  75  66 W9        30.06S HX  97
BEAUFORT MCAS  MOSUNNY   91  73  55 NW10      30.06S HX  99
BEAUFORT ARPT  FAIR      88  73  62 W8        30.06S HX  96
HILTON HEAD IS SUNNY     91  73  55 W9        30.08R HX 100
WALTERBORO     SUNNY     90  72  55 W8        30.06S HX  96
ALLENDALE      FAIR      88  73  62 VRB6      30.05S HX  96

...SOUTHERN MIDLANDS AND PEE DEE...

CITY           SKY/WX    TMP DP  RH WIND       PRES   REMARKS
GEORGETOWN     FAIR      88  73  62 W8        30.04S HX  96
KINGSTREE      FAIR      88  73  62 SW6       30.04R HX  96
ORANGEBURG     SUNNY     88  73  61 W10       30.05S HX  95
BARNWELL       NOT AVBL
AIKEN          FAIR      86  72  62 W9        30.09S HX  92
MANNING        FAIR      88  73  62 SW6       30.04S HX  96
COLUMBIA       MOSUNNY   93  72  50 W9        30.03S HX 101
SUMTER         SUNNY     89  73  60 SW10      30.02R HX  97
FLORENCE       SUNNY     90  73  57 W8        30.02S HX  98
MYRTLE BEACH   SUNNY     91  72  52 NW12      30.03F HX  98
N MYRTLE BEACH SUNNY     91  75  59 VRB5      30.01S HX 101

$$

GAZ063-065-086>088-099>101-113>116-118-119-134>141-150-271600-
...SOUTHEAST GEORGIA...

CITY           SKY/WX    TMP DP  RH WIND       PRES   REMARKS
SAVANNAH ARPT  PTSUNNY   90  72  55 W10       30.07S HX  97
HUNTER AAF     SUNNY     89  77  68 W8        30.05R HX 101
FORT STEWART   SUNNY     87  72  60 VRB1      30.06S HX  94
STATESBORO     SUNNY     88  76  67 W7        30.08S HX  98
SYLVANIA       NOT AVBL
CLAXTON        FAIR      89  74  62 SW9       30.08S HX  98

...CSRA...CENTRAL AND FAR SOUTHEAST GEORGIA...

CITY           SKY/WX    TMP DP  RH WIND       PRES   REMARKS
THOMSON        NOT AVBL
AUGUSTA-BUSH   SUNNY     89  72  56 SW10      30.05S HX  96
AUGUSTA-DANIEL MOSUNNY   89  73  59 VRB5      30.07F HX  97
SWAINSBORO     FAIR      88  72  58 W9        30.09S HX  94
VIDALIA        MOSUNNY   88  72  58 W6        30.09S HX  94
EASTMAN        FAIR      87  64  45 W3        30.12S
HAZLEHURST     FAIR      89  75  62 W3        30.09R HX  98
ALMA           SUNNY     87  72  60 W3        30.09S HX  93
WAYCROSS       MOSUNNY   91  76  60 W6        30.09S HX 103
JESUP          FAIR      90  77  66 W7        30.09S HX 102
BAXLEY         FAIR      88  79  74 NW6       30.09S HX 102
BRUNSWICK      SUNNY     90  77  66 W5        30.10R HX 102
SAINT SIMONS   SUNNY     88  72  58 W7        30.09R HX  94

$$

SCZ027-028-034-036>038-045-046-048>050-GAZ119-141-271600-
...LAKE AND SUPPLEMENTAL COASTAL OBSERVATIONS...

STATION/POSITION TIME  TEMP    WIND        PRES    WAVE   SWELL
                       AIR SEA DIR/SP/G            HT/PER HT/PER/DIR
                 (UTC) (F)     (DEG/KT/KT) (MB)    (FT/S) (FT/S/D)
WINYAH BAY       NOT AVBL
LAKE MURRAY      1420   85     270/  6/ 10 1016.3F
ACE BASIN NERRS  NOT AVBL
FORT PULASKI     1400   84 87  270/ 11/ 13 1018.5F
SAPELO ISLAND    1400   86     280/  8     1019.0S

$$

ANZ835-935-AMZ111-154-330-350-352-354-370-450-454-472-271600-
...C-MAN AND BUOY OBSERVATIONS...

STATION/POSITION TIME  TEMP    WIND        PRES    WAVE   SWELL
                       AIR SEA DIR/SP/G            HT/PER HT/PER/DIR
                 (UTC) (F)     (DEG/KT/KT) (MB)    (FT/S) (FT/S/D)
BUOY 41004       1450   84 86  250/ 10/ 12 1017.1S   3/ 6   3/210/ 6
BUOY 41008       1450   84 87  250/  8/ 10 1018.8R   2/ 5   2/160/ 5
FOLLY BEACH CMAN 1400   87     270/  4/  7 1017.6S
CAPERS NEARSHORE 1408   85 84  270/  8/ 10 1017.2S
FRIPP NEARSHORE  1408   84 86  280/ 10/ 14 1017.3S


STATION/POSITION TIME  TEMP    WIND        PRES    WAVE   SWELL
                       AIR SEA DIR/SP/G            HT/PER HT/PER/DIR
                 (UTC) (F)     (DEG/KT/KT) (MB)    (FT/S) (FT/S/D)
5E ST. MARYS GA  1431      86                N/A     1/ 5
FRYING PAN BUOY  1400   85 85  260/ 14/ 16 1016.3F
BUOY 41025       1450   83 84  270/ 12/ 16 1014.9R   4/ 5   2/150/ 8
CAPE LOOKOUT NC  1400   85     260/ 12/ 17 1014.9
BUOY 41002       1450   85 84  270/ 12/ 16 1017.4F   4/ 5   2/140/ 6
BUOY 41010       1420   85 86  210/  6/  8 1019.7R
ST AUGUSTINE FL  1500   83 85   40/  5/  5 1020.5R


$$




USA.gov is the U.S. government's official web portal to all federal, state and local government web resources and services.